�N����,����,�~����,�C��,���x,�C��,����,���ϕ���,�ő�u�ԕ���,�ő厞����,���˗�,�I�_���x,�n�����x,�ő啗���N��,DTYPE
"23/10/28","00:10",0.0,10.3,97.9,1006.7,292.4,1.2,2.0,295.5,0.00,10.0,15.9,"00:07:04",1
"23/10/28","00:20",0.0,10.6,98.0,1006.9,302.3,1.3,2.2,319.3,0.00,10.3,15.7,"00:13:52",1
"23/10/28","00:30",0.0,10.7,97.5,1006.7,285.2,1.1,1.4,311.0,0.00,10.4,15.7,"00:23:52",1
"23/10/28","00:40",0.0,10.4,98.1,1006.4,301.8,1.3,2.2,257.1,0.00,10.2,15.5,"00:39:14",1
"23/10/28","00:50",0.0,10.8,97.6,1006.4,293.3,1.5,2.4,332.1,0.00,10.5,15.6,"00:47:44",1
"23/10/28","01:00",0.0,10.9,98.1,1006.4,300.3,1.7,3.4,323.6,0.00,10.7,15.6,"00:57:22",1
"23/10/28","01:10",0.0,11.0,97.7,1006.4,318.3,2.1,3.2,337.5,0.00,10.7,15.7,"01:08:32",1
"23/10/28","01:20",0.0,10.8,98.1,1006.4,317.4,1.8,3.4,329.5,0.00,10.6,15.7,"01:16:48",1
"23/10/28","01:30",0.0,10.4,97.7,1006.4,318.9,1.3,1.8,306.1,0.00,10.1,15.6,"01:25:22",1
"23/10/28","01:40",0.0,10.3,98.4,1006.7,306.3,1.3,1.8,311.9,0.00,10.1,15.3,"01:34:16",1
"23/10/28","01:50",0.0,10.7,97.8,1006.2,324.1,1.8,2.6,311.6,0.00,10.4,15.4,"01:40:32",1
"23/10/28","02:00",0.0,10.5,98.4,1006.4,321.3,1.6,2.7,332.3,0.00,10.3,15.5,"01:59:14",1
"23/10/28","02:10",0.0,10.8,97.9,1006.4,317.7,2.0,3.2,321.9,0.00,10.5,15.3,"02:05:48",1
"23/10/28","02:20",0.0,10.8,98.4,1006.4,319.7,1.8,2.8,309.9,0.00,10.6,15.4,"02:10:48",1
"23/10/28","02:30",0.0,10.8,97.9,1006.7,318.5,1.5,2.0,323.7,0.00,10.5,15.4,"02:25:04",1
"23/10/28","02:40",0.0,10.7,98.5,1006.2,295.6,1.5,2.7,326.2,0.00,10.5,15.3,"02:32:34",1
"23/10/28","02:50",0.0,10.8,98.0,1006.7,306.5,1.7,3.1,335.0,0.00,10.5,15.6,"02:44:02",1
"23/10/28","03:00",0.0,10.8,98.0,1006.4,322.6,1.8,2.9,327.9,0.00,10.5,15.4,"02:50:40",1
"23/10/28","03:10",0.0,11.0,98.0,1006.4,324.8,1.8,3.1,340.4,0.00,10.7,15.4,"03:00:56",1
"23/10/28","03:20",0.0,11.1,98.0,1006.4,315.9,2.2,3.7,320.5,0.00,10.8,15.3,"03:19:44",1
"23/10/28","03:30",0.0,11.2,98.0,1006.7,321.9,2.0,2.9,336.8,0.00,10.9,15.3,"03:29:04",1
"23/10/28","03:40",0.0,11.2,98.0,1006.4,318.2,2.1,3.5,339.5,0.00,10.9,15.3,"03:38:40",1
"23/10/28","03:50",0.0,11.2,98.0,1006.4,320.9,2.0,2.8,333.1,0.00,10.9,15.4,"03:44:16",1
"23/10/28","04:00",0.0,11.1,98.0,1006.7,327.5,2.0,2.8,330.3,0.00,10.8,15.3,"03:56:16",1
"23/10/28","04:10",0.0,11.1,98.1,1006.4,325.5,2.2,3.5,338.4,0.00,10.9,15.4,"04:07:04",1
"23/10/28","04:20",0.0,11.0,98.1,1006.4,330.2,2.3,4.9,321.9,0.00,10.8,15.3,"04:19:52",1
"23/10/28","04:30",0.0,11.0,98.1,1006.9,322.9,2.2,4.3,313.4,0.00,10.8,15.4,"04:24:40",1
"23/10/28","04:40",0.0,11.0,98.1,1007.1,322.7,1.8,3.2,324.6,0.00,10.8,15.2,"04:37:20",1
"23/10/28","04:50",0.0,11.1,98.2,1007.1,324.7,2.3,4.2,336.8,0.00,10.9,15.2,"04:47:36",1
"23/10/28","05:00",0.0,11.1,98.1,1006.9,325.7,2.3,5.5,343.8,0.00,10.9,15.2,"04:59:04",1
"23/10/28","05:10",0.0,11.2,98.1,1006.7,324.8,2.3,3.7,332.9,0.00,11.0,15.0,"05:01:52",1
"23/10/28","05:20",0.0,11.1,98.1,1006.4,327.7,2.2,3.6,322.0,0.00,10.9,15.3,"05:12:08",1
"23/10/28","05:30",0.0,11.1,98.2,1006.9,328.2,2.2,4.0,315.7,0.00,10.9,15.1,"05:21:28",1
"23/10/28","05:40",0.0,11.1,98.2,1007.1,333.0,1.8,2.7,323.9,0.00,10.9,15.3,"05:38:48",1
"23/10/28","05:50",0.0,11.3,98.2,1006.9,325.1,2.6,4.3,313.4,0.00,11.1,15.3,"05:49:28",1
"23/10/28","06:00",0.0,11.3,98.1,1006.9,325.3,2.3,4.0,340.9,0.00,11.1,15.3,"05:56:56",1
"23/10/28","06:10",0.0,11.3,98.1,1006.9,326.8,2.0,3.6,339.9,0.00,11.1,15.3,"06:02:16",1
"23/10/28","06:20",0.0,11.1,98.1,1006.9,304.0,1.1,2.1,320.2,0.00,10.9,15.3,"06:10:08",1
"23/10/28","06:30",0.0,11.0,98.2,1007.4,326.2,0.6,1.2,327.6,0.00,10.8,15.1,"06:20:08",1
"23/10/28","06:40",0.0,11.2,98.2,1007.6,307.0,0.6,1.2,355.2,0.00,11.0,14.9,"06:31:04",1
"23/10/28","06:50",0.0,11.1,98.3,1007.6,294.0,1.3,1.9,315.0,0.00,10.9,15.1,"06:47:52",1
"23/10/28","07:00",0.0,11.3,98.2,1007.6,311.1,1.2,1.8,329.6,0.00,11.1,15.2,"06:51:20",1
"23/10/28","07:10",0.0,11.5,98.3,1007.8,314.1,1.1,1.9,307.6,0.04,11.3,15.3,"07:09:20",1
"23/10/28","07:20",0.0,12.4,98.1,1008.3,283.1,0.6,1.6,316.9,0.09,12.1,15.1,"07:10:32",1
"23/10/28","07:30",0.0,12.4,97.9,1008.3,246.8,0.5,0.9,175.5,0.03,12.1,15.0,"07:20:48",1
"23/10/28","07:40",0.0,12.5,98.3,1008.3,276.6,1.0,1.6,317.4,0.11,12.3,14.9,"07:33:36",1
"23/10/28","07:50",0.0,13.3,98.1,1008.6,273.1,0.7,1.4,239.8,0.16,13.0,15.2,"07:40:32",1
"23/10/28","08:00",0.0,14.0,97.8,1008.6,48.0,0.3,0.8,103.7,0.19,13.7,15.1,"07:55:28",1
"23/10/28","08:10",0.0,14.0,98.2,1008.6,307.7,0.6,1.2,306.4,0.13,13.8,15.2,"08:01:12",1
"23/10/28","08:20",0.0,14.5,97.5,1008.8,88.3,0.6,1.6,100.3,0.23,14.1,15.3,"08:19:20",1
"23/10/28","08:30",0.0,14.6,97.9,1008.8,176.4,0.6,1.4,120.3,0.26,14.3,15.1,"08:23:12",1
"23/10/28","08:40",0.0,14.7,97.7,1008.8,68.9,0.6,1.6,114.1,0.29,14.4,15.0,"08:34:56",1
"23/10/28","08:50",0.0,14.9,97.1,1009.0,33.7,0.7,1.7,3.0,0.36,14.5,15.2,"08:49:20",1
"23/10/28","09:00",0.0,16.0,96.7,1009.0,282.8,0.5,1.2,346.5,0.37,15.5,15.4,"08:55:28",1
"23/10/28","09:10",0.0,15.8,96.1,1008.6,127.9,0.7,1.7,117.5,0.32,15.2,15.2,"09:03:28",1
"23/10/28","09:20",0.0,16.2,95.2,1008.6,79.8,0.6,2.1,62.5,0.34,15.5,15.2,"09:15:20",1
"23/10/28","09:30",0.0,16.8,94.2,1008.3,139.9,0.7,2.5,135.7,0.42,15.9,15.3,"09:26:00",1
"23/10/28","09:40",0.0,17.0,92.0,1008.3,207.5,0.8,1.7,188.3,0.38,15.7,15.4,"09:32:16",1
"23/10/28","09:50",0.0,17.4,89.9,1008.6,49.3,0.8,1.9,84.4,0.31,15.8,15.5,"09:40:40",1
"23/10/28","10:00",0.0,18.0,86.0,1009.0,148.7,0.7,2.5,100.8,0.37,15.7,15.5,"09:59:28",1
"23/10/28","10:10",0.0,18.2,81.6,1008.8,24.4,0.8,2.4,354.2,0.25,15.0,15.7,"10:04:16",1
"23/10/28","10:20",0.0,19.3,79.8,1008.3,345.1,0.7,1.7,75.3,0.37,15.8,15.7,"10:11:12",1
"23/10/28","10:30",0.0,19.9,76.3,1008.3,307.0,1.0,3.1,320.3,0.35,15.6,15.6,"10:25:12",1
"23/10/28","10:40",0.0,19.7,74.1,1008.3,264.9,1.6,4.0,242.7,0.22,15.0,16.0,"10:30:02",1
"23/10/28","10:50",0.0,19.8,73.2,1008.1,304.8,2.0,4.4,344.8,0.29,14.9,15.9,"10:46:32",1
"23/10/28","11:00",0.0,20.4,68.0,1007.8,293.7,1.8,3.9,301.6,0.35,14.3,15.8,"10:51:52",1
"23/10/28","11:10",0.0,19.9,63.1,1007.8,324.0,3.9,7.3,313.3,0.30,12.7,15.9,"11:09:12",1
"23/10/28","11:20",0.0,19.5,64.3,1007.6,331.4,2.6,6.3,343.7,0.14,12.6,16.2,"11:15:04",1
"23/10/28","11:30",0.0,19.9,61.6,1007.6,320.3,3.0,6.0,323.1,0.28,12.4,16.0,"11:27:28",1
"23/10/28","11:40",0.0,20.6,59.9,1007.8,306.0,2.1,4.4,326.3,0.29,12.6,16.2,"11:38:40",1
"23/10/28","11:50",0.0,20.7,57.8,1007.6,341.8,2.8,7.7,5.8,0.31,12.1,16.2,"11:45:28",1
"23/10/28","12:00",0.0,20.9,56.0,1007.4,329.4,2.5,5.6,12.2,0.36,11.8,16.4,"11:51:52",1
"23/10/28","12:10",0.0,20.8,54.3,1007.1,319.7,2.8,5.9,322.3,0.32,11.3,16.5,"12:08:00",1
"23/10/28","12:20",0.0,20.2,56.3,1006.9,319.7,3.1,6.8,321.1,0.17,11.3,16.6,"12:13:44",1
"23/10/28","12:30",0.0,20.0,56.1,1006.9,333.0,2.8,5.2,349.5,0.14,11.0,16.6,"12:23:28",1
"23/10/28","12:40",0.0,20.1,55.0,1006.9,334.9,2.7,8.9,338.2,0.23,10.8,16.7,"12:32:48",1
"23/10/28","12:50",0.0,20.9,53.9,1006.7,304.9,2.2,5.7,341.1,0.30,11.3,16.7,"12:44:56",1
"23/10/28","13:00",0.0,20.8,54.1,1006.9,327.0,3.4,5.9,332.1,0.33,11.2,16.7,"12:50:40",1
"23/10/28","13:10",0.0,20.3,55.6,1006.4,340.9,2.5,5.7,347.6,0.09,11.2,16.8,"13:00:16",1
"23/10/28","13:20",0.0,19.6,53.6,1006.7,342.2,3.4,6.6,343.5,0.17,10.0,16.9,"13:12:08",1
"23/10/28","13:30",0.0,19.8,52.9,1006.9,338.2,3.1,6.6,358.8,0.20,10.0,16.7,"13:26:56",1
"23/10/28","13:40",0.0,20.3,48.9,1007.1,324.7,4.0,7.3,309.0,0.35,9.3,16.9,"13:34:40",1
"23/10/28","13:50",0.0,20.5,48.9,1006.9,324.3,3.5,7.1,306.9,0.33,9.4,16.8,"13:41:28",1
"23/10/28","14:00",0.0,19.6,50.8,1006.9,326.8,3.0,8.6,345.4,0.12,9.2,17.0,"13:50:48",1
"23/10/28","14:10",0.0,20.7,48.4,1007.4,342.3,2.5,4.8,347.1,0.30,9.5,17.0,"14:05:04",1
"23/10/28","14:20",0.0,21.5,46.3,1007.4,334.2,2.2,5.0,342.2,0.30,9.5,17.1,"14:10:48",1
"23/10/28","14:30",0.0,20.4,47.3,1006.9,351.4,2.8,7.5,330.2,0.18,8.9,17.1,"14:23:36",1
"23/10/28","14:40",0.0,19.5,50.9,1007.1,349.8,2.2,4.7,2.7,0.08,9.1,16.9,"14:36:48",1
"23/10/28","14:50",0.0,19.0,54.0,1007.6,349.9,2.3,5.0,338.5,0.07,9.5,17.0,"14:48:24",1
"23/10/28","15:00",0.0,18.5,58.1,1007.6,8.6,2.5,5.1,7.1,0.04,10.2,17.2,"14:51:52",1
"23/10/28","15:10",0.0,18.6,58.7,1007.8,350.3,1.8,4.3,332.6,0.06,10.4,17.0,"15:06:40",1
"23/10/28","15:20",0.0,18.3,58.9,1007.8,338.5,2.0,4.3,336.1,0.04,10.2,17.2,"15:11:20",1
"23/10/28","15:30",0.0,18.2,55.4,1008.3,355.0,2.6,5.5,5.8,0.05,9.2,17.1,"15:24:56",1
"23/10/28","15:40",0.0,19.2,54.2,1008.1,342.7,2.1,4.1,337.5,0.11,9.8,17.2,"15:36:08",1
"23/10/28","15:50",0.0,19.3,55.6,1008.1,352.4,2.0,4.7,334.9,0.08,10.2,17.1,"15:41:20",1
"23/10/28","16:00",0.0,18.6,57.1,1008.1,2.3,2.2,5.8,329.2,0.05,10.0,17.0,"15:59:20",1
"23/10/28","16:10",0.0,18.4,57.8,1008.3,356.5,2.7,6.4,326.2,0.04,10.0,17.0,"16:04:24",1
"23/10/28","16:20",0.0,18.0,58.8,1008.6,353.7,2.5,5.4,330.7,0.02,9.9,16.9,"16:10:24",1
"23/10/28","16:30",0.0,17.6,60.6,1008.6,337.9,2.3,5.5,344.6,0.01,9.9,17.0,"16:21:20",1
"23/10/28","16:40",0.0,17.1,61.8,1008.6,338.7,1.7,3.3,335.1,0.00,9.8,17.1,"16:31:20",1
"23/10/28","16:50",0.0,16.6,63.0,1008.6,329.4,2.5,4.3,345.6,0.00,9.6,17.1,"16:41:36",1
"23/10/28","17:00",0.0,16.4,63.9,1008.8,320.7,2.2,4.9,313.4,0.00,9.6,17.0,"16:51:36",1
"23/10/28","17:10",0.0,16.1,65.0,1008.8,315.5,1.7,3.1,318.3,0.00,9.6,17.1,"17:00:38",1
"23/10/28","17:20",0.0,15.8,66.0,1009.0,321.7,1.8,2.7,282.2,0.00,9.5,17.1,"17:11:14",1
"23/10/28","17:30",0.0,15.4,67.5,1009.3,325.1,1.5,2.9,335.3,0.00,9.5,16.8,"17:21:32",1
"23/10/28","17:40",0.0,15.0,68.9,1009.0,306.8,1.3,2.5,341.5,0.00,9.4,16.7,"17:34:54",1
"23/10/28","17:50",0.0,14.6,70.3,1009.3,314.9,1.2,1.8,334.3,0.00,9.3,16.9,"17:42:32",1
"23/10/28","18:00",0.0,14.5,71.3,1009.0,319.9,1.5,2.9,325.9,0.00,9.4,16.8,"17:51:52",1
"23/10/28","18:10",0.0,14.3,72.2,1009.7,321.2,1.2,1.8,335.7,0.00,9.4,16.9,"18:09:28",1
"23/10/28","18:20",0.0,13.9,73.3,1010.0,313.8,1.2,1.9,325.4,0.00,9.2,16.7,"18:13:52",1
"23/10/28","18:30",0.0,13.4,75.2,1010.0,287.8,0.6,1.6,317.0,0.00,9.1,16.7,"18:24:26",1
"23/10/28","18:40",0.0,13.0,77.1,1010.2,297.3,0.8,2.0,307.3,0.00,9.1,16.7,"18:39:24",1
"23/10/28","18:50",0.0,12.8,79.0,1010.0,305.5,1.3,1.9,321.3,0.00,9.3,16.7,"18:48:14",1
"23/10/28","19:00",0.0,12.7,81.0,1010.2,314.5,1.3,2.1,310.0,0.00,9.6,16.5,"18:55:42",1
"23/10/28","19:10",0.0,13.2,82.3,1010.2,324.3,1.5,3.5,312.9,0.00,10.3,16.5,"19:03:48",1
"23/10/28","19:20",0.0,13.5,82.7,1010.2,320.7,1.3,2.2,322.4,0.00,10.7,16.5,"19:15:12",1
"23/10/28","19:30",0.0,13.9,82.1,1010.4,318.9,1.8,3.5,329.6,0.00,10.9,16.4,"19:23:12",1
"23/10/28","19:40",0.0,14.3,80.6,1010.7,323.9,1.7,2.9,333.3,0.00,11.1,16.5,"19:30:56",1
"23/10/28","19:50",0.0,14.5,79.3,1010.9,316.1,1.5,2.2,338.9,0.00,11.0,16.3,"19:44:46",1
"23/10/28","20:00",0.0,14.6,78.7,1010.9,318.5,1.5,2.2,320.5,0.00,11.0,16.5,"19:52:38",1
"23/10/28","20:10",0.0,14.5,78.6,1010.7,325.0,1.1,1.7,342.2,0.00,10.9,16.4,"20:02:32",1
"23/10/28","20:20",0.0,14.3,78.8,1010.9,285.8,0.6,1.2,262.0,0.00,10.7,16.3,"20:18:20",1
"23/10/28","20:30",0.0,13.7,79.8,1011.2,301.6,1.0,1.7,346.4,0.00,10.3,16.1,"20:28:08",1
"23/10/28","20:40",0.0,13.2,81.5,1011.2,322.0,1.5,2.4,334.7,0.00,10.1,16.3,"20:33:50",1
"23/10/28","20:50",0.0,12.5,82.7,1010.9,301.8,1.5,2.4,324.4,0.00,9.7,16.2,"20:45:28",1
"23/10/28","21:00",0.0,12.0,84.0,1011.4,314.2,1.6,2.2,323.6,0.00,9.4,16.2,"20:58:20",1
"23/10/28","21:10",0.0,11.6,85.3,1011.4,307.3,1.7,2.2,308.7,0.00,9.3,16.1,"21:09:18",1
"23/10/28","21:20",0.0,11.6,86.4,1011.2,309.4,1.5,2.5,295.1,0.00,9.4,16.3,"21:12:00",1
"23/10/28","21:30",0.0,11.2,87.5,1010.9,311.3,1.8,2.5,314.0,0.00,9.2,15.9,"21:28:40",1
"23/10/28","21:40",0.0,11.3,88.4,1011.2,319.6,1.6,2.2,320.6,0.00,9.5,16.3,"21:34:56",1
"23/10/28","21:50",0.0,11.3,89.0,1011.2,328.6,1.5,2.2,319.5,0.00,9.6,16.1,"21:49:38",1
"23/10/28","22:00",0.0,11.1,89.6,1011.2,314.2,1.8,2.4,313.4,0.00,9.5,15.9,"21:57:36",1
"23/10/28","22:10",0.0,11.5,90.1,1011.2,313.0,2.0,2.9,331.0,0.00,10.0,16.0,"22:07:04",1
"23/10/28","22:20",0.0,11.7,90.3,1010.7,317.4,2.1,2.8,307.2,0.00,10.2,16.0,"22:17:26",1
"23/10/28","22:30",0.0,11.7,90.4,1010.9,325.2,2.0,2.9,325.1,0.00,10.2,15.9,"22:24:38",1
"23/10/28","22:40",0.0,11.6,90.5,1010.9,315.9,1.8,2.4,331.3,0.00,10.1,15.8,"22:30:26",1
"23/10/28","22:50",0.0,11.4,90.5,1011.2,318.1,1.6,2.1,322.6,0.00,9.9,15.8,"22:41:26",1
"23/10/28","23:00",0.0,10.9,90.7,1011.2,309.1,1.2,2.1,323.4,0.00,9.5,15.8,"22:58:16",1
"23/10/28","23:10",0.0,10.7,90.8,1010.7,322.2,0.8,1.8,327.1,0.00,9.3,15.5,"23:02:32",1
"23/10/28","23:20",0.0,10.1,91.1,1011.4,284.8,1.2,1.7,306.9,0.00,8.8,15.8,"23:10:08",1
"23/10/28","23:30",0.0,9.8,91.4,1011.2,302.7,1.7,2.2,312.3,0.00,8.5,15.7,"23:21:36",1
"23/10/28","23:40",0.0,10.1,91.7,1011.2,322.0,1.8,2.2,310.4,0.00,8.9,15.6,"23:30:16",1
"23/10/28","23:50",0.0,10.1,91.9,1011.2,318.5,1.7,2.6,324.4,0.00,8.9,15.6,"23:47:52",1
"23/10/28","24:00",0.0,9.9,92.2,1010.7,306.4,1.0,2.2,290.3,0.00,8.7,15.7,"23:50:56",1
